Погода в Желдце

Украина / Львовская область     50°06′30″N   24°10′31″E
темп.,
°C
ветер,
м/с
пор.,
м/с
влажн.,
%
обл.,
%
осадки,
мм/ч
давл.,
гПа
погр.,
м
1 августа, вс
вс100:00+17ююз23965 0.1 1010107
03:00+15зюз23950 0.1 101148
06:00+16юз22945 0.0 101035
09:00+20юз22814 0.0 1011240
12:00+25ю22653 0.0 1010746
15:00+28ююв3451100 0.0 10081293
18:00+27юв58585 0.0 1006767
21:00+22юв41072100 0.0 1005202
2 августа, пн
пн200:00+19ююв38926 10.8 1006201
03:00+17ююз3491100 10.8 100471
06:00+16зюз511951 0.2 1005244
09:00+18зсз71091100 0.8 1007567
12:00+18зсз6884100 0.1 1010799
15:00+17зсз687853 0.1 1011802
18:00+16зюз488797 0.0 1012422
21:00+16зюз37860 0.1 1013134
3 августа, вт
вт300:00+14зюз48945 0.0 1014156
03:00+13з35945 0.0 101597
06:00+13з23941 0.2 101646
09:00+17з45810 0.2 1017396
12:00+21зсз456512 1.1 10171249
15:00+22зсз4654100 1.6 10161860
18:00+22ссз34594 0.0 1016705
21:00+17ююв22711 0.0 101611
4 августа, ср
ср400:00+15ююв228045 0.1 101720
03:00+14ююв3485100 0.1 101759
06:00+14вюв2391100 0.8 101654
09:00+16ююв3690100 1.3 1015197
12:00+20ю2475100 0.0 1015394
15:00+23юв236679 0.0 1014417
18:00+22ссв2266100 0.0 1014117
21:00+20вюв3377100 0.1 101345
5 августа, чт
чт500:00+19всв2278100 0.0 101311
03:00+17ссв2291100 1.8 101331
06:00+16в119173 0.0 101211
09:00+19св22827 0.0 1011215
12:00+24вюв2266100 0.0 1010562
15:00+26юв3455100 0.1 1008549
18:00+22св1176100 0.3 100812
21:00+20сз458899 0.8 1007112